Weather History for Spirit of St Louis, MO

Change the Weather History Date:

Friday, November 9, 2012

  Actual Average Record
Temperature  
Mean Temperature 56 °F -  
Max Temperature 71 °F 54 °F 78 °F (2006)
Min Temperature 42 °F 35 °F 25 °F (2008)
Degree Days  
Heating Degree Days 8    
Growing Degree Days 6 (Base 50)    
Moisture  
Dew Point 46 °F    
Average Humidity 60    
Maximum Humidity 82    
Minimum Humidity 47    
Precipitation  
Precipitation 0.00 in - - ()
Sea Level Pressure  
Sea Level Pressure 29.98 in    
Wind  
Wind Speed 4 mph (South)    
Max Wind Speed 14 mph    
Max Gust Speed 21 mph    
Visibility 10 miles    
Events      
Averages and records for this station are not official NWS values.
T = Trace of Precipitation, MM = Missing Value Source: NWS Daily Summary

Daily Weather History Graph

Daily Weather History Graph

Search for Another Location

Airport:

Trip Planner

Search our weather history database for the weather conditions in past years. The results will help you decide how hot, cold, wet, or windy it might be!

Date:

Astronomy

Nov. 09, 2012 Rise Set
Actual Time 6:38 AM CST 4:53 PM CST
Civil Twilight 6:10 AM CST 5:21 PM CST
Nautical Twilight 5:38 AM CST 5:53 PM CST
Astronomical Twilight 5:07 AM CST 6:24 PM CST
Moon 1:40 AM CST (11/9) 2:04 PM CST (11/9)
Length of Visible Light 11h 11m
Length of Day
10h 15m
Waning Crescent, 23% of the Moon is Illuminated
Nov 9
Waning Crescent
Nov 13
New
Nov 20
First Quarter
Nov 28
Full
Dec 6
Last Quarter

Hourly Weather History & Observations

Time (CST) Temp. Windchill Dew Point Humidity Pressure Visibility Wind Dir Wind Speed Gust Speed Precip Events Conditions
12:54 AM 43.0 °F - 36.0 °F 76% 30.06 in 10.0 mi Calm Calm - N/A   Clear
1:54 AM 42.1 °F - 36.0 °F 79% 30.06 in 10.0 mi Calm Calm - N/A   Clear
2:54 AM 42.1 °F 40.2 °F 37.0 °F 82% 30.05 in 10.0 mi East 3.5 mph - N/A   Clear
3:54 AM 46.0 °F - 39.0 °F 76% 30.04 in 10.0 mi Calm Calm - N/A   Mostly Cloudy
4:54 AM 48.9 °F - 39.0 °F 69% 30.04 in 10.0 mi Calm Calm - N/A   Overcast
5:54 AM 53.1 °F - 39.0 °F 59% 30.04 in 10.0 mi SSW 3.5 mph - N/A   Mostly Cloudy
6:54 AM 50.0 °F - 39.9 °F 68% 30.04 in 10.0 mi Calm Calm - N/A   Scattered Clouds
7:54 AM 55.0 °F - 41.0 °F 59% 30.05 in 10.0 mi SSE 4.6 mph - N/A   Mostly Cloudy
8:54 AM 57.9 °F - 41.0 °F 53% 30.04 in 10.0 mi South 4.6 mph - N/A   Mostly Cloudy
9:54 AM 63.0 °F - 45.0 °F 52% 30.02 in 10.0 mi South 10.4 mph 16.1 mph N/A   Scattered Clouds
10:54 AM 64.9 °F - 46.0 °F 50% 30.01 in 10.0 mi Variable 6.9 mph - N/A   Scattered Clouds
11:54 AM 69.1 °F - 48.9 °F 49% 29.97 in 10.0 mi South 9.2 mph - N/A   Scattered Clouds
12:54 PM 70.0 °F - 48.9 °F 47% 29.94 in 10.0 mi South 13.8 mph 19.6 mph N/A   Scattered Clouds
1:54 PM 71.1 °F - 50.0 °F 47% 29.92 in 10.0 mi SW 10.4 mph 19.6 mph N/A   Scattered Clouds
2:54 PM 71.1 °F - 50.0 °F 47% 29.91 in 10.0 mi South 6.9 mph - N/A   Scattered Clouds
3:54 PM 71.1 °F - 51.1 °F 49% 29.90 in 10.0 mi SSE 8.1 mph - N/A   Clear
4:54 PM 70.0 °F - 52.0 °F 53% 29.90 in 10.0 mi South 6.9 mph - N/A   Mostly Cloudy
5:54 PM 68.0 °F - 52.0 °F 56% 29.90 in 10.0 mi South 5.8 mph - N/A   Clear
6:54 PM 66.9 °F - 53.1 °F 61% 29.91 in 10.0 mi South 5.8 mph - N/A   Clear
7:54 PM 66.0 °F - 53.1 °F 63% 29.92 in 10.0 mi South 8.1 mph - N/A   Clear
8:54 PM 64.9 °F - 52.0 °F 63% 29.94 in 10.0 mi SSW 12.7 mph 19.6 mph N/A   Clear
9:54 PM 64.9 °F - 52.0 °F 63% 29.94 in 10.0 mi SSW 11.5 mph 20.7 mph N/A   Clear
10:54 PM 64.0 °F - 48.9 °F 58% 29.96 in 10.0 mi SSW 10.4 mph 18.4 mph N/A   Clear
11:54 PM 62.1 °F - 46.9 °F 58% 29.96 in 10.0 mi SSW 11.5 mph 17.3 mph N/A   Clear